This demonstration page uses our WeatherBlox Daily Observations layout. Learn more.

Left ArrowRight Arrow

53.62937, 11.41316

Hourly Observations for July 24, 2016

Temp ( °F °C ) Dew Point ( °F °C ) Humidity (%) Winds ( mph kmh ) Pressure ( in mb ) Visibility ( mi km ) Precip ( " mm )
6:20 am 06:20 Mostly Sunny 64 18 61 16 88 88 E 7 11 30.12 1020 7 11 N/A
6:50 am 06:50 Mostly Sunny 66 19 61 16 83 83 E 7 11 30.12 1020 7 11 N/A
7:20 am 07:20 Mostly Sunny 66 19 61 16 83 83 E 7 11 30.12 1020 7 11 N/A
7:50 am 07:50 Mostly Sunny 68 20 61 16 78 78 E 7 11 30.12 1020 7 11 N/A
8:20 am 08:20 Mostly Sunny 68 20 61 16 78 78 E 9 15 30.12 1020 7 11 N/A
8:50 am 08:50 Mostly Sunny 70 21 61 16 73 73 E 7 11 30.12 1020 7 11 N/A
9:20 am 09:20 Mostly Sunny 70 21 63 17 78 78 E 9 15 30.12 1020 7 11 N/A
9:50 am 09:50 Mostly Cloudy 72 22 61 16 69 69 E 8 13 30.12 1020 30 48 N/A
10:20 am 10:20 Mostly Cloudy 73 23 63 17 69 69 ESE 8 13 30.12 1020 30 48 N/A
10:50 am 10:50 Mostly Cloudy 73 23 61 16 65 65 ENE 6 9 30.12 1020 30 48 N/A
11:20 am 11:20 Mostly Cloudy 73 23 61 16 65 65 ENE 5 7 30.12 1020 30 48 N/A
11:50 am 11:50 Mostly Cloudy 75 24 61 16 61 61 E 7 11 30.12 1020 30 48 N/A
12:20 pm 12:20 Mostly Sunny 75 24 61 16 61 61 ENE 6 9 30.09 1019 7 11 N/A
12:50 pm 12:50 Mostly Sunny 79 26 61 16 54 54 VRB 7 11 30.09 1019 7 11 N/A
1:20 pm 13:20 Mostly Sunny 79 26 59 15 51 51 ENE 6 9 30.09 1019 7 11 N/A
1:50 pm 13:50 Mostly Sunny 81 27 59 15 48 48 VRB 5 7 30.09 1019 7 11 N/A
2:20 pm 14:20 Mostly Sunny 82 28 61 16 48 48 VRB 3 6 30.09 1019 7 11 N/A
2:50 pm 14:50 Mostly Sunny 82 28 59 15 45 45 E 6 9 30.09 1019 7 11 N/A
3:20 pm 15:20 Mostly Sunny 82 28 59 15 45 45 E 7 11 30.09 1019 7 11 N/A
3:50 pm 15:50 Mostly Sunny 82 28 57 14 42 42 VRB 7 11 30.06 1018 7 11 N/A
4:20 pm 16:20 Mostly Sunny 82 28 55 13 40 40 E 9 15 30.06 1018 7 11 N/A
4:50 pm 16:50 Mostly Sunny 82 28 55 13 40 40 ENE 7 11 30.06 1018 7 11 N/A
5:20 pm 17:20 Mostly Sunny 82 28 54 12 37 37 VRB 2 4 30.06 1018 7 11 N/A
5:50 pm 17:50 Mostly Sunny 82 28 55 13 40 40 VRB 5 7 30.06 1018 7 11 N/A
6:20 pm 18:20 Mostly Sunny 82 28 55 13 40 40 VRB 5 7 30.06 1018 7 11 N/A
6:50 pm 18:50 Mostly Sunny 82 28 57 14 42 42 NE 7 11 30.06 1018 7 11 N/A

Powered by AerisWeather